Total_Precipitation_Accumulation
1.76 1.48 2.35 2.41 2.13 1.89 1.82 1.88 2.00 2.08 2.12 2.04 1.99 1.92 1.73 1.51 1.36 1.30 1.18 1.15 1.13 1.11 1.09 1.02 1.07 1.10 1.07 1.06 1.11 1.16 1.20 1.11 1.11 1.12 1.03 1.09 1.25 1.24 1.22 1.42 2.01 2.37 1.76
1.10 1.20 2.17 2.31 2.02 1.84 1.76 1.90 2.11 2.18 2.28 2.26 2.03 1.84 1.66 1.43 1.25 1.19 1.20 1.12 1.08 1.04 1.03 1.03 1.06 1.14 1.17 1.15 1.20 1.25 1.18 1.16 1.20 1.25 1.29 1.34 1.35 1.33 1.28 1.40 1.84 2.17 1.74
0.88 1.01 1.62 2.21 2.01 1.92 1.93 1.99 2.07 2.12 2.12 2.00 1.83 1.70 1.58 1.40 1.26 1.21 1.19 1.09 1.00 1.00 0.94 0.94 0.96 1.04 1.12 1.16 1.18 1.14 1.04 1.10 1.19 1.40 1.89 2.39 1.84 1.51 1.49 1.47 1.64 1.64 1.58
0.91 0.94 1.21 2.01 2.08 2.04 2.10 2.07 1.94 1.86 1.83 1.69 1.64 1.59 1.46 1.41 1.32 1.23 1.16 1.08 0.96 0.93 0.94 0.94 0.89 0.93 1.00 1.05 1.12 1.03 0.93 1.05 1.20 1.45 1.90 2.43 2.31 1.94 1.77 1.73 1.76 1.55 1.52
0.93 1.00 1.38 2.09 2.14 2.11 2.06 2.03 2.02 1.82 1.75 1.59 1.45 1.47 1.42 1.39 1.27 1.21 1.15 1.03 0.94 0.92 0.87 0.89 0.92 0.95 1.06 1.08 1.06 1.00 0.96 1.06 1.29 1.20 1.49 2.03 2.57 2.35 1.80 1.81 1.85 1.66 1.64
1.01 1.08 1.42 1.94 2.05 2.05 2.01 1.99 1.91 1.72 1.60 1.51 1.39 1.43 1.45 1.42 1.31 1.19 1.10 1.05 0.97 0.95 0.90 0.90 0.98 1.06 1.16 1.13 1.10 1.13 1.15 1.14 1.09 1.21 1.54 1.95 2.49 2.36 1.87 1.74 1.62 1.70 1.69
1.07 1.08 1.34 1.81 1.90 1.96 1.86 1.69 1.67 1.65 1.51 1.37 1.32 1.32 1.31 1.31 1.25 1.18 1.23 1.21 1.08 1.01 0.97 0.97 1.09 1.10 1.14 1.14 1.17 1.22 1.29 1.13 1.03 1.32 1.47 1.85 2.08 2.15 1.83 1.65 1.68 1.86 1.82
1.12 1.05 1.16 1.58 1.74 1.78 1.71 1.64 1.64 1.59 1.48 1.31 1.22 1.20 1.21 1.22 1.11 1.06 1.13 1.13 1.09 1.06 1.02 0.99 1.07 1.00 1.04 1.14 1.23 1.31 1.40 1.16 0.99 1.17 1.24 1.63 2.15 2.23 1.78 1.64 1.69 1.87 2.00
1.40 1.22 1.13 1.26 1.45 1.58 1.71 1.72 1.77 1.74 1.65 1.48 1.29 1.23 1.22 1.14 0.97 0.91 1.04 1.09 1.10 1.05 1.04 1.07 1.13 1.07 1.07 1.20 1.32 1.40 1.41 1.17 1.11 1.17 1.05 1.65 2.32 2.08 1.66 1.47 1.49 1.67 1.80
1.37 1.32 1.22 1.26 1.33 1.38 1.51 1.74 1.94 2.01 2.06 1.78 1.43 1.32 1.19 1.02 0.93 0.96 0.99 1.10 1.20 1.20 1.20 1.24 1.28 1.22 1.25 1.25 1.31 1.34 1.22 1.00 1.05 1.03 1.27 1.63 2.20 2.06 1.65 1.42 1.40 1.38 1.46
0.98 1.06 1.11 1.17 1.30 1.33 1.36 1.46 1.81 2.00 2.12 1.78 1.31 1.33 1.19 0.94 0.88 0.98 1.02 1.34 1.44 1.46 1.49 1.51 1.46 1.45 1.39 1.31 1.34 1.32 1.03 0.78 0.90 1.09 1.38 1.78 2.18 2.08 1.67 1.45 1.23 1.21 1.24
0.81 0.76 0.78 0.79 0.89 1.07 1.16 1.42 1.72 1.76 1.87 1.53 1.28 1.28 1.21 1.26 1.17 0.96 1.07 1.44 1.61 1.66 1.55 1.50 1.54 1.43 1.21 1.01 1.00 0.99 0.85 0.82 0.91 1.06 1.36 2.00 2.32 2.11 1.69 1.43 1.21 1.16 1.17
0.60 0.59 0.59 0.63 0.65 0.81 1.14 1.43 1.68 1.78 1.84 1.79 1.72 1.51 1.45 1.37 1.16 1.02 1.00 1.08 1.20 1.27 1.17 1.27 1.30 1.11 1.02 0.92 0.91 0.84 0.76 0.88 1.11 1.12 1.46 2.12 2.45 2.22 1.86 1.57 1.31 1.26 1.29
0.62 0.62 0.56 0.49 0.55 0.68 0.87 1.10 1.42 1.60 1.66 1.64 1.58 1.27 1.32 1.34 1.16 1.11 1.20 1.25 1.22 1.20 1.34 1.38 1.35 1.26 1.09 0.92 0.90 0.92 0.87 0.89 1.10 1.23 1.54 1.87 2.35 2.56 2.23 1.85 1.64 1.58 1.55
0.71 0.80 0.75 0.61 0.58 0.67 0.76 0.78 0.96 1.14 1.23 1.48 1.54 1.18 1.10 1.13 1.23 1.23 1.13 1.29 1.36 1.37 1.39 1.43 1.32 1.23 1.24 1.10 1.10 1.11 1.13 1.01 1.08 1.14 1.34 1.55 1.98 2.60 2.74 2.45 2.19 1.97 1.84
0.56 0.68 0.73 0.74 0.75 0.77 0.73 0.67 0.66 0.73 0.87 1.02 1.06 0.93 0.89 0.92 1.09 1.29 1.20 1.17 1.25 1.45 1.54 1.52 1.42 1.43 1.41 1.24 1.22 1.27 1.25 1.19 1.21 1.25 1.37 1.34 1.37 1.82 2.37 2.66 2.63 2.41 2.20
0.47 0.53 0.61 0.68 0.73 0.78 0.85 0.83 0.69 0.69 0.78 0.80 0.81 0.82 0.85 0.85 1.02 1.23 1.17 1.08 1.08 1.23 1.42 1.62 1.67 1.64 1.43 1.34 1.30 1.32 1.25 1.24 1.25 1.42 1.45 1.48 1.36 1.33 1.69 2.03 2.33 2.43 2.46
0.45 0.46 0.52 0.52 0.59 0.70 0.84 0.92 0.88 0.87 0.87 0.80 0.71 0.66 0.68 0.70 0.78 1.03 1.13 1.06 1.05 1.21 1.44 1.69 1.85 1.88 1.68 1.62 1.62 1.52 1.34 1.32 1.29 1.42 1.46 1.52 1.61 1.36 1.29 1.35 1.55 1.81 2.02
0.42 0.44 0.46 0.48 0.52 0.58 0.70 0.79 0.81 0.83 0.86 0.82 0.75 0.66 0.60 0.61 0.70 0.95 1.20 1.24 1.23 1.35 1.46 1.48 1.72 1.82 1.89 1.80 1.65 1.52 1.43 1.45 1.44 1.38 1.55 1.56 1.56 1.46 1.27 1.00 0.93 1.05 1.38
0.41 0.43 0.48 0.49 0.49 0.50 0.53 0.62 0.72 0.71 0.75 0.79 0.72 0.68 0.73 0.80 0.87 1.09 1.35 1.42 1.49 1.53 1.63 1.81 2.08 2.10 1.99 1.97 1.79 1.56 1.44 1.46 1.49 1.57 1.59 1.57 1.58 1.40 1.23 1.06 0.94 0.74 0.91
0.36 0.38 0.44 0.48 0.48 0.45 0.42 0.47 0.53 0.57 0.70 0.81 0.86 0.92 0.92 0.94 1.02 1.24 1.46 1.71 1.82 1.70 1.75 1.98 2.26 2.41 2.22 2.04 2.11 1.99 1.83 1.64 1.59 1.55 1.55 1.60 1.62 1.53 1.38 1.31 1.20 1.06 0.95
0.25 0.29 0.36 0.38 0.37 0.34 0.32 0.37 0.46 0.54 0.66 0.86 1.01 1.21 1.15 1.06 1.11 1.14 1.38 1.57 1.67 1.76 1.81 1.92 2.20 2.54 2.37 2.09 2.28 2.66 2.47 2.24 1.79 1.47 1.59 1.65 1.69 1.62 1.50 1.33 1.29 1.23 1.18
0.22 0.25 0.29 0.33 0.33 0.32 0.39 0.58 0.85 1.12 1.24 1.31 1.35 1.56 1.59 1.46 1.42 1.39 1.43 1.53 1.62 1.77 1.90 1.93 1.98 2.29 2.40 2.23 2.22 2.76 2.74 2.55 2.35 1.86 1.52 1.59 1.70 1.75 1.72 1.60 1.44 1.37 1.30
0.21 0.26 0.29 0.32 0.38 0.40 0.55 0.87 1.27 1.61 1.74 1.73 1.83 1.90 1.98 1.89 1.72 1.72 1.74 1.81 1.74 1.71 1.77 1.79 1.79 1.99 2.34 2.43 2.28 2.14 2.09 2.19 2.54 2.29 1.77 1.61 1.62 1.64 1.74 1.63 1.63 1.63 1.59
0.27 0.34 0.38 0.45 0.59 0.75 0.89 1.05 1.35 1.54 1.64 1.77 1.93 2.17 2.32 2.37 2.29 2.22 2.18 2.05 1.84 1.76 1.81 1.84 1.84 1.93 2.06 2.24 2.21 2.06 2.01 1.97 1.86 2.07 2.06 1.84 1.64 1.52 1.61 1.65 1.66 1.66 1.72
0.41 0.49 0.53 0.65 0.77 0.84 0.94 1.08 1.22 1.29 1.43 1.64 1.83 2.06 2.22 2.31 2.28 2.21 2.08 1.86 1.68 1.62 1.70 1.84 1.88 1.95 1.95 2.02 1.98 1.87 1.88 1.84 1.77 1.93 1.92 1.94 1.90 1.52 1.38 1.45 1.51 1.54 1.53